TimeCST,TemperatureF,Dew PointF,Humidity,Sea Level PressureIn,VisibilityMPH,Wind Direction,Wind SpeedMPH,Gust SpeedMPH,PrecipitationIn,Events,Conditions,WindDirDegrees,DateUTC
12:56 AM,-9999,-9999,N/A,30.28,-9999.0,SSE,4.6,-,N/A,,Unknown,150,2013-01-22 06:56:00
1:56 AM,-9999,-9999,N/A,30.27,-9999.0,SE,6.9,-,N/A,,Unknown,140,2013-01-22 07:56:00
2:56 AM,-9999,-9999,N/A,30.27,-9999.0,ESE,3.5,-,N/A,,Unknown,120,2013-01-22 08:56:00
3:56 AM,-9999,-9999,N/A,30.27,-9999.0,ESE,5.8,-,N/A,,Unknown,120,2013-01-22 09:56:00
4:56 AM,21.9,14.0,72,30.26,-9999.0,ESE,9.2,-,N/A,,Unknown,110,2013-01-22 10:56:00
5:56 AM,21.0,14.0,74,30.25,-9999.0,SE,9.2,16.1,N/A,,Unknown,130,2013-01-22 11:56:00
6:56 AM,19.0,14.0,81,30.26,-9999.0,ESE,8.1,-,N/A,,Unknown,120,2013-01-22 12:56:00
7:56 AM,19.0,14.0,81,30.23,-9999.0,SE,11.5,-,N/A,,Unknown,130,2013-01-22 13:56:00
8:56 AM,23.0,16.0,74,30.23,-9999.0,SSE,5.8,-,N/A,,Unknown,160,2013-01-22 14:56:00
9:56 AM,28.0,17.1,63,30.25,-9999.0,South,6.9,-,N/A,,Unknown,170,2013-01-22 15:56:00
10:56 AM,33.1,18.0,54,30.26,-9999.0,South,5.8,-,N/A,,Unknown,170,2013-01-22 16:56:00
11:56 AM,37.0,19.0,48,30.24,-9999.0,SSW,6.9,-,N/A,,Unknown,200,2013-01-22 17:56:00
12:56 PM,39.9,19.9,45,30.20,-9999.0,WSW,4.6,-,N/A,,Unknown,250,2013-01-22 18:56:00
1:56 PM,45.0,21.0,39,30.18,-9999.0,ENE,8.1,-,N/A,,Unknown,60,2013-01-22 19:56:00
2:56 PM,45.0,21.0,39,30.17,-9999.0,Variable,4.6,-,N/A,,Unknown,0,2013-01-22 20:56:00
3:56 PM,46.9,21.9,37,30.19,-9999.0,NW,3.5,-,N/A,,Unknown,320,2013-01-22 21:56:00
4:56 PM,45.0,21.9,40,30.19,-9999.0,ESE,3.5,-,N/A,,Unknown,120,2013-01-22 22:56:00
5:56 PM,43.0,21.0,42,30.19,-9999.0,Calm,Calm,-,N/A,,Unknown,0,2013-01-22 23:56:00
6:56 PM,35.1,21.0,57,30.22,-9999.0,North,4.6,-,N/A,,Unknown,10,2013-01-23 00:56:00
7:56 PM,32.0,19.9,61,30.22,-9999.0,NNE,5.8,-,N/A,,Unknown,20,2013-01-23 01:56:00
8:56 PM,30.0,19.9,66,30.25,-9999.0,North,5.8,-,N/A,,Unknown,10,2013-01-23 02:56:00
9:56 PM,28.9,19.9,69,30.26,-9999.0,North,3.5,-,N/A,,Unknown,360,2013-01-23 03:56:00
10:56 PM,28.9,19.9,69,30.25,-9999.0,Calm,Calm,-,N/A,,Unknown,0,2013-01-23 04:56:00
11:56 PM,26.1,19.0,75,30.27,-9999.0,NNW,3.5,-,N/A,,Unknown,340,2013-01-23 05:56:00